METEOR 1-17 DEB, 57540

Orbit data source: Space-Track

METEOR 1-17 DEB, 57540 is space debris in LEO originally from a Commonwealth of Independent States-origin launch on Wed, 24 Apr 1974 UTC launched from the Plesetsk Missile And Space Complex (PKMTR). Debris objects in space refer to the collection of defunct objects orbiting the Earth. Examples of debris include non-operational satellites, rocket bodies, and fragments generated from explosions, collisions, or faulty payload assembly.

Loading next visibility...
Identifier
57540, 1974-025F
Orbit
LEO
Country
Flag of CISCIS
Related business
Manufacturer
VNIIEM
Mission
Spacecraft
Bus & Motor
Unknown
Mass
Unknown
Launch date (UTC)
1974-04-24 (52 years ago)
Launch vehicle
Unknown
Launch site
Plesetsk Missile And Space Complex (PKMTR)
Object type
Payload
Rocket body
Debris
Shape & HBR
Unknown shape, 0.1 m
Radar Cross Section
Small (<0.1 m²)

Expand to show TLE details & history
Last TLE update: 1 year ago

TLE from 1 year ago
0 METEOR 1-17 DEB
1 57540U 74025F   25061.17951246  .00010842  00000-0  52357-2 0  9997
2 57540  81.2155  34.3875 0012444 140.0291 220.1802 14.18463122 85298
Epoch: 2025-03-02T04:18Z
TLE epoch observation values (Epoch: 2025-03-02T04:18:29.876Z)
Latitude
-0.00011°
Longitude
169.54765°
Altitude
840.325 km
Speed
7.429 km/s
True Right ascension
02h 17m 32s
True Declination
0° 00' 00"
Sunlit
Object was in daylight at epoch
Visualization orbit readout
Latitude
Unknown
Longitude
Unknown
Altitude
Unknown
Speed
Unknown
Apparent Right ascension
Unknown
Apparent Declination
Unknown
Sunlit
N/A
Visualization observer readout
Local Sidereal Time
00:51:32
Azimuth
Unknown
Elevation
Unknown
Doppler factor
Unknown
Orbital elements
Apogee altitude
836.686 km
Perigee altitude
818.752 km
Semi-major axis
7,205.856 km
Eccentricity
0.00124
Inclination
81.2155°
RAAN
34.3875°
Arg. of periapsis
140.0291°
True anomaly
220.08831°
Mean anomaly
220.1802°
Eccentric anomaly
220.13424°
Mean motion
3.54825 °/min
Orbital period
101.46 mins
BSTAR
0.0052357
Loading maneuver chart data...
Computing Atmospheric mass density...
Loading historical data...
Loading historical data...
Loading historical data...
Loading historical data...
Loading historical data...
Loading historical data...
Loading historical data...

Documentation

Showing up to 5 results
|